DW5057 Weather Reports


Display with metric or nautical units.
time (UTC)temp
F
wind
direction
speed
MPH
gust
MPH
rain 1hr
in
rain 24hr
in
rain mn
in
humidity
%
barometer
mb
20260902222518 77 48 2.0 5.0 0.00 0.61 0.57 86 1017.8
20260902221518 77 61 2.0 3.0 0.00 0.61 0.57 86 1018.0
20260902220518 77 58 2.0 3.0 0.00 0.61 0.57 85 1018.4
20260902215519 77 47 2.0 3.0 0.00 0.61 0.57 86 1018.5
20260902214516 76 59 2.0 2.0 0.00 0.61 0.57 86 1018.6
20260902213516 76 66 2.0 4.0 0.00 0.61 0.57 86 1018.4
20260902212516 76 50 2.0 5.0 0.00 0.61 0.57 86 1018.3
20260902211516 76 47 2.0 4.0 0.00 0.61 0.57 87 1018.3
20260902210516 76 50 2.0 4.0 0.00 0.61 0.57 87 1018.6
20260902205516 76 48 2.0 4.0 0.02 0.61 0.57 87 1018.7
20260902204537 76 55 2.0 3.0 0.05 0.61 0.57 87 1017.9
20260902203517 76 53 2.0 5.0 0.06 0.61 0.57 87 1017.3
20260902202517 76 69 2.0 4.0 0.06 0.61 0.57 87 1016.5
20260902201517 76 46 1.0 5.0 0.06 0.61 0.57 87 1016.3
20260902200538 76 288 2.0 5.0 0.05 0.61 0.56 86 1016.1
20260902195517 77 303 1.0 4.0 0.04 0.59 0.55 83 1017.8
20260902194538 78 41 2.0 4.0 0.01 0.56 0.52 81 1018.7
20260902193518 78 46 1.0 3.0 0.00 0.55 0.51 79 1019.1
20260902192519 78 43 2.0 3.0 0.00 0.55 0.51 79 1019.6
20260902191518 78 45 2.0 4.0 0.00 0.55 0.51 79 1019.7
20260902190518 79 47 2.0 4.0 0.00 0.55 0.51 79 1019.6
20260902185538 79 44 3.0 4.0 0.00 0.55 0.51 78 1019.5
20260902184516 79 52 3.0 4.0 0.00 0.55 0.51 78 1019.6
20260902183516 80 48 3.0 5.0 0.00 0.55 0.51 76 1019.6
20260902182516 80 46 3.0 5.0 0.00 0.55 0.51 75 1019.7
20260902181516 81 49 2.0 4.0 0.00 0.55 0.51 75 1019.8
20260902180536 80 47 3.0 8.0 0.00 0.55 0.51 74 1019.7
20260902173517 80 48 3.0 6.0 0.00 0.55 0.51 73 1019.9
20260902172517 80 50 3.0 6.0 0.00 0.55 0.51 73 1019.7
20260902171517 80 46 3.0 5.0 0.00 0.55 0.51 74 1019.5
20260902170517 80 43 3.0 6.0 0.00 0.55 0.51 74 1019.5
20260902165517 80 43 3.0 8.0 0.00 0.55 0.51 75 1019.4
20260902164517 80 49 3.0 6.0 0.00 0.55 0.51 75 1019.2
20260902163518 80 50 3.0 6.0 0.00 0.55 0.51 75 1019.1
20260902162518 80 49 3.0 6.0 0.00 0.55 0.51 75 1019.2
20260902161518 79 48 3.0 6.0 0.00 0.55 0.51 76 1019.3
20260902160518 79 47 4.0 9.0 0.00 0.55 0.51 77 1019.2
20260902155519 80 44 3.0 6.0 0.00 0.55 0.51 77 1019.1
20260902154519 80 45 3.0 8.0 0.00 0.55 0.51 77 1019.1
20260902153516 79 47 3.0 7.0 0.00 0.55 0.51 77 1019.3
20260902152522 79 56 2.0 4.0 0.00 0.55 0.51 79 1019.6
20260902151539 79 46 2.0 6.0 0.00 0.55 0.51 79 1019.7
20260902150519 78 37 2.0 5.0 0.00 0.55 0.51 80 1019.6
20260902145542 78 50 2.0 5.0 0.00 0.55 0.51 81 1019.6
20260902144522 78 44 2.0 4.0 0.00 0.55 0.51 82 1019.7
20260902143522 78 47 1.0 3.0 0.00 0.55 0.51 82 1019.7
20260902142518 78 44 1.0 5.0 0.00 0.55 0.51 82 1019.6
20260902141517 78 43 2.0 5.0 0.00 0.55 0.51 83 1019.5
20260902140517 78 51 2.0 6.0 0.00 0.55 0.51 82 1019.4
20260902135517 78 43 2.0 6.0 0.00 0.55 0.51 82 1019.3
20260902134517 77 36 2.0 5.0 0.00 0.55 0.51 85 1019.0
20260902133524 77 53 1.0 3.0 0.00 0.55 0.51 85 1018.7
20260902132523 77 38 3.0 5.0 0.00 0.55 0.51 85 1018.6
20260902131544 77 51 2.0 3.0 0.00 0.55 0.51 85 1018.6
20260902130521 77 46 2.0 5.0 0.00 0.55 0.51 86 1018.6
20260902125521 77 44 2.0 6.0 0.00 0.55 0.51 86 1018.6
20260902124524 77 52 2.0 4.0 0.00 0.55 0.51 87 1018.6
20260902123524 76 56 1.0 3.0 0.00 0.55 0.51 89 1018.5
20260902122524 75 43 1.0 4.0 0.00 0.55 0.51 91 1018.5
20260902121525 75 82 1.0 2.0 0.00 0.55 0.51 92 1018.6
20260902120524 75 47 1.0 2.0 0.00 0.55 0.51 93 1018.7
20260902115525 75 55 0.0 2.0 0.00 0.55 0.51 93 1018.6
20260902114525 74 30 0.0 1.0 0.00 0.55 0.51 93 1018.5
20260902113545 74 39 0.0 1.0 0.00 0.55 0.51 93 1018.6
20260902112525 74 0.0 0.0 0.00 0.55 0.51 93 1018.5
20260902111545 74 0.0 0.0 0.00 0.55 0.51 93 1018.4
20260902110526 74 47 1.0 3.0 0.00 0.55 0.51 93 1018.2
20260902105546 74 62 0.0 2.0 0.00 0.55 0.51 93 1018.1
20260902104526 74 33 1.0 4.0 0.00 0.55 0.51 93 1018.0
20260902103526 73 44 1.0 3.0 0.00 0.55 0.51 92 1017.9
20260902102527 73 58 0.0 2.0 0.00 0.55 0.51 92 1017.8
20260902101527 73 45 1.0 2.0 0.00 0.55 0.51 92 1017.6
20260902100526 73 56 0.0 3.0 0.00 0.55 0.51 92 1017.7
20260902095527 73 38 0.0 2.0 0.00 0.55 0.51 92 1017.6
20260902094528 72 32 1.0 3.0 0.00 0.55 0.51 92 1017.5
20260902093527 72 35 1.0 3.0 0.00 0.55 0.51 92 1017.5
20260902092608 72 76 0.0 0.0 0.00 0.55 0.51 91 1017.5
20260902091547 72 29 0.0 2.0 0.00 0.55 0.51 91 1017.4
20260902090548 72 0.0 0.0 0.00 0.55 0.51 91 1017.3
20260902085548 72 40 0.0 1.0 0.00 0.55 0.51 91 1017.3
20260902084528 72 28 0.0 2.0 0.00 0.55 0.51 91 1017.2
20260902083528 72 29 0.0 2.0 0.00 0.55 0.51 91 1017.2
20260902082531 72 42 1.0 3.0 0.00 0.55 0.51 91 1017.1
20260902081549 73 10 0.0 2.0 0.00 0.55 0.51 91 1017.1
20260902080529 73 13 1.0 2.0 0.00 0.55 0.51 91 1016.9
20260902075549 73 56 0.0 1.0 0.00 0.55 0.51 91 1016.8
20260902074549 73 11 0.0 1.0 0.00 0.55 0.51 91 1016.7
20260902073529 73 0.0 0.0 0.00 0.55 0.51 91 1016.7
20260902072529 73 0.0 0.0 0.00 0.55 0.51 91 1016.6
20260902071614 73 216 0.0 1.0 0.00 0.55 0.51 91 1016.5
20260902031611 74 43 3.0 6.0 0.04 0.04 0.04 86 1017.8
20260902030517 76 41 2.0 7.0 0.03 0.03 0.03 85 1018.1
20260902025517 76 41 2.0 5.0 0.01 0.01 0.01 85 1017.9
20260902024516 77 233 1.0 4.0 0.01 0.01 0.01 82 1016.8
20260902023516 79 229 1.0 4.0 0.00 0.00 0.00 79 1016.4
20260902022517 80 220 1.0 3.0 0.00 0.00 0.00 77 1016.1
20260902021517 80 212 1.0 4.0 0.00 0.00 0.00 82 1016.2
20260902020517 80 309 0.0 0.0 0.00 0.00 0.00 83 1014.6
20260902015558 80 169 0.0 1.0 0.00 0.00 0.00 83 1014.4
20260902014537 80 235 0.0 1.0 0.00 0.00 0.00 83 1014.2
20260902013518 80 278 0.0 1.0 0.00 0.00 0.00 83 1014.4
20260902012518 80 327 0.0 1.0 0.00 0.00 0.00 84 1014.1
20260902011538 80 202 0.0 1.0 0.00 0.00 0.00 84 1013.8
20260902010518 80 333 0.0 0.0 0.00 0.00 0.00 84 1014.1
20260902005518 80 231 0.0 1.0 0.00 0.00 0.00 84 1014.1
20260902004518 80 0.0 0.0 0.00 0.00 0.00 84 1014.3
20260902003539 80 226 0.0 1.0 0.00 0.00 0.00 84 1014.3
20260902002516 80 341 0.0 1.0 0.00 0.00 0.00 84 1014.2
20260902001516 80 275 0.0 2.0 0.00 0.00 0.00 84 1013.6
20260902000516 80 0.0 0.0 0.00 0.00 0.00 84 1013.7
20260901235516 81 233 0.0 2.0 0.00 0.00 0.00 83 1013.8
20260901234517 81 220 0.0 1.0 0.00 0.00 0.00 83 1014.0
20260901233516 81 241 0.0 1.0 0.00 0.00 0.00 83 1014.2
20260901232517 81 0.0 0.0 0.00 0.00 0.00 82 1014.2
20260901231517 81 282 0.0 0.0 0.00 0.00 0.00 82 1014.1
20260901230517 82 214 0.0 2.0 0.00 0.00 0.00 81 1014.1
20260901225537 82 163 0.0 1.0 0.00 0.00 0.00 81 1014.2
20260901224517 82 159 0.0 1.0 0.00 0.00 0.00 81 1014.2
20260901223518 82 0.0 0.0 0.00 0.00 0.00 81 1014.2